Terminal Aerodrome Forecast
Issued by NWS

Home | Current Version | Previous Version | Text Only | Print | Product List | Glossary On
Versions: 1 2 3 4 5 6 7 8 9 10 11 12 13 14 15 16 17 18 19 20 21 22 23 24 25 26 27 28 29 30
000
FTUS41 KBUF 151733
TAFIAG
TAF
KIAG 151733Z 1518/1618 21010G16KT 2SM -SN OVC025
     FM152100 22013G25KT 1SM -SN VCTS OVC015CB
      TEMPO 1521/1524 1/4SM +SN OVC009
     FM160000 24008KT P6SM OVC040
     FM160200 26011G18KT P6SM SCT070
     FM161100 26011G17KT P6SM BKN090
     FM161700 32007KT P6SM OVC050=

USA.gov is the U.S. government's official web portal to all federal, state and local government web resources and services.